TimeCST,TemperatureF,Dew PointF,Humidity,Sea Level PressureIn,VisibilityMPH,Wind Direction,Wind SpeedMPH,Gust SpeedMPH,PrecipitationIn,Events,Conditions,WindDirDegrees,DateUTC
12:15 AM,59.9,55.8,86,30.28,10.0,NW,8.1,-,N/A,,Overcast,320,2013-11-12 06:15:00
12:35 AM,60.8,56.1,85,30.29,10.0,NNW,5.8,-,N/A,,Overcast,340,2013-11-12 06:35:00
12:55 AM,61.2,56.5,85,30.30,10.0,NNW,4.6,-,N/A,,Overcast,340,2013-11-12 06:55:00
1:15 AM,61.9,56.3,82,30.30,10.0,NNW,4.6,-,N/A,,Overcast,340,2013-11-12 07:15:00
1:35 AM,62.8,57.2,82,30.31,10.0,NNW,12.7,18.4,N/A,,Overcast,340,2013-11-12 07:35:00
1:55 AM,60.4,55.0,82,30.33,10.0,North,19.6,27.6,N/A,,Overcast,350,2013-11-12 07:55:00
2:15 AM,58.5,53.1,82,30.34,10.0,North,16.1,25.3,N/A,,Overcast,360,2013-11-12 08:15:00
2:35 AM,56.8,51.1,81,30.35,10.0,North,15.0,26.5,N/A,,Overcast,360,2013-11-12 08:35:00
2:55 AM,55.9,50.7,83,30.37,10.0,North,12.7,26.5,N/A,,Overcast,350,2013-11-12 08:55:00
3:15 AM,54.3,48.6,81,30.38,10.0,North,18.4,25.3,N/A,,Overcast,350,2013-11-12 09:15:00
3:35 AM,53.2,47.5,81,30.39,10.0,North,18.4,25.3,N/A,,Overcast,350,2013-11-12 09:35:00
3:55 AM,52.7,46.2,79,30.40,10.0,North,16.1,25.3,N/A,,Overcast,350,2013-11-12 09:55:00
4:15 AM,52.2,45.7,79,30.41,10.0,North,15.0,20.7,N/A,,Overcast,360,2013-11-12 10:15:00
4:35 AM,51.8,45.5,79,30.43,10.0,North,18.4,26.5,N/A,,Overcast,360,2013-11-12 10:35:00
4:55 AM,51.3,44.6,78,30.44,10.0,North,15.0,26.5,N/A,,Overcast,360,2013-11-12 10:55:00
5:15 AM,50.7,43.7,77,30.46,10.0,North,18.4,27.6,N/A,,Overcast,350,2013-11-12 11:15:00
5:35 AM,50.0,42.1,74,30.47,10.0,North,13.8,32.2,N/A,,Overcast,360,2013-11-12 11:35:00
5:55 AM,49.5,40.6,72,30.48,10.0,North,19.6,24.2,N/A,,Overcast,10,2013-11-12 11:55:00
6:15 AM,48.7,39.4,70,30.49,10.0,North,15.0,26.5,N/A,,Overcast,360,2013-11-12 12:15:00
6:35 AM,48.2,38.7,70,30.51,10.0,North,16.1,26.5,N/A,,Overcast,360,2013-11-12 12:35:00
6:55 AM,47.7,37.8,69,30.52,10.0,North,11.5,26.5,N/A,,Overcast,360,2013-11-12 12:55:00
7:15 AM,46.6,37.0,69,30.54,10.0,North,16.1,24.2,N/A,,Scattered Clouds,360,2013-11-12 13:15:00
7:35 AM,46.0,36.5,69,30.56,10.0,North,17.3,20.7,N/A,,Clear,360,2013-11-12 13:35:00
7:55 AM,45.7,35.8,68,30.57,10.0,North,18.4,28.8,N/A,,Clear,10,2013-11-12 13:55:00
8:15 AM,45.3,33.4,63,30.59,10.0,North,19.6,25.3,N/A,,Clear,10,2013-11-12 14:15:00
8:35 AM,45.5,32.5,61,30.60,10.0,North,11.5,23.0,N/A,,Clear,360,2013-11-12 14:35:00
8:55 AM,46.0,32.0,58,30.60,10.0,North,12.7,23.0,N/A,,Clear,360,2013-11-12 14:55:00
9:15 AM,47.1,32.2,56,30.60,10.0,North,16.1,26.5,N/A,,Clear,10,2013-11-12 15:15:00
9:35 AM,48.0,32.4,55,30.61,10.0,North,15.0,21.9,N/A,,Clear,10,2013-11-12 15:35:00
9:55 AM,48.7,32.2,53,30.61,10.0,North,15.0,23.0,N/A,,Clear,360,2013-11-12 15:55:00
10:15 AM,48.9,32.0,52,30.62,10.0,North,13.8,24.2,N/A,,Clear,10,2013-11-12 16:15:00
10:35 AM,49.3,31.3,50,30.63,10.0,NNE,16.1,26.5,N/A,,Clear,20,2013-11-12 16:35:00
10:55 AM,50.0,31.1,48,30.63,10.0,North,16.1,23.0,N/A,,Clear,360,2013-11-12 16:55:00
11:15 AM,50.0,29.3,45,30.63,10.0,North,17.3,26.5,N/A,,Clear,10,2013-11-12 17:15:00
11:35 AM,50.9,29.7,44,30.62,10.0,North,13.8,21.9,N/A,,Clear,350,2013-11-12 17:35:00
11:55 AM,52.0,29.3,42,30.62,10.0,NNE,12.7,19.6,N/A,,Clear,20,2013-11-12 17:55:00
12:15 PM,52.5,29.1,41,30.61,10.0,NNE,11.5,17.3,N/A,,Clear,20,2013-11-12 18:15:00
12:35 PM,52.5,27.5,38,30.61,10.0,North,18.4,24.2,N/A,,Clear,360,2013-11-12 18:35:00
12:55 PM,53.4,27.0,36,30.61,10.0,North,15.0,21.9,N/A,,Clear,360,2013-11-12 18:55:00
1:15 PM,53.1,26.1,35,30.60,10.0,North,17.3,24.2,N/A,,Clear,360,2013-11-12 19:15:00
1:35 PM,52.7,24.6,34,30.60,10.0,North,15.0,23.0,N/A,,Clear,360,2013-11-12 19:35:00
1:55 PM,53.1,24.4,33,30.61,10.0,NNE,17.3,21.9,N/A,,Clear,20,2013-11-12 19:55:00
2:15 PM,53.4,22.5,30,30.61,10.0,North,19.6,23.0,N/A,,Clear,360,2013-11-12 20:15:00
2:35 PM,53.2,22.6,30,30.61,10.0,North,15.0,19.6,N/A,,Clear,10,2013-11-12 20:35:00
2:55 PM,53.1,22.3,30,30.61,10.0,North,15.0,23.0,N/A,,Clear,10,2013-11-12 20:55:00
3:15 PM,52.5,21.2,29,30.61,10.0,North,12.7,21.9,N/A,,Clear,360,2013-11-12 21:15:00
3:35 PM,52.3,22.1,31,30.61,10.0,North,11.5,17.3,N/A,,Clear,10,2013-11-12 21:35:00
3:55 PM,51.6,22.3,32,30.61,10.0,North,13.8,17.3,N/A,,Clear,360,2013-11-12 21:55:00
4:15 PM,51.1,22.3,32,30.61,10.0,North,12.7,18.4,N/A,,Clear,10,2013-11-12 22:15:00
4:35 PM,50.2,21.9,33,30.61,10.0,North,10.4,-,N/A,,Clear,360,2013-11-12 22:35:00
4:55 PM,49.3,21.6,34,30.62,10.0,North,10.4,18.4,N/A,,Clear,10,2013-11-12 22:55:00
5:15 PM,48.2,21.2,34,30.62,10.0,North,10.4,-,N/A,,Clear,360,2013-11-12 23:15:00
5:35 PM,46.2,22.8,40,30.62,10.0,North,9.2,-,N/A,,Clear,360,2013-11-12 23:35:00
5:55 PM,45.5,23.2,41,30.63,10.0,North,8.1,-,N/A,,Clear,360,2013-11-12 23:55:00
6:15 PM,44.1,24.8,47,30.64,10.0,North,5.8,-,N/A,,Clear,350,2013-11-13 00:15:00
6:35 PM,43.3,25.5,49,30.65,10.0,North,5.8,-,N/A,,Clear,350,2013-11-13 00:35:00
6:55 PM,42.1,26.2,53,30.66,10.0,NNW,5.8,-,N/A,,Clear,340,2013-11-13 00:55:00
7:15 PM,41.2,26.8,57,30.67,10.0,NNW,8.1,-,N/A,,Clear,340,2013-11-13 01:15:00
7:35 PM,40.3,27.1,59,30.67,10.0,North,6.9,-,N/A,,Clear,350,2013-11-13 01:35:00
7:55 PM,39.9,26.8,59,30.67,10.0,NNW,5.8,-,N/A,,Clear,340,2013-11-13 01:55:00
8:15 PM,39.2,26.6,61,30.67,10.0,NNW,6.9,-,N/A,,Clear,340,2013-11-13 02:15:00
8:35 PM,38.3,26.6,63,30.68,10.0,NNW,5.8,-,N/A,,Clear,340,2013-11-13 02:35:00
8:55 PM,37.9,26.6,64,30.68,10.0,NNW,4.6,-,N/A,,Clear,340,2013-11-13 02:55:00
9:15 PM,36.7,26.6,67,30.67,10.0,NNW,4.6,-,N/A,,Clear,340,2013-11-13 03:15:00
9:35 PM,36.7,26.2,66,30.67,10.0,North,5.8,-,N/A,,Clear,360,2013-11-13 03:35:00
9:55 PM,36.5,25.9,65,30.68,10.0,North,4.6,-,N/A,,Clear,360,2013-11-13 03:55:00
10:15 PM,36.5,25.3,64,30.67,10.0,North,3.5,-,N/A,,Clear,10,2013-11-13 04:15:00
10:35 PM,36.5,25.3,64,30.68,10.0,North,3.5,-,N/A,,Clear,10,2013-11-13 04:35:00
10:55 PM,35.8,25.5,66,30.68,10.0,North,3.5,-,N/A,,Clear,350,2013-11-13 04:55:00
11:15 PM,35.6,25.3,66,30.68,10.0,North,5.8,-,N/A,,Clear,360,2013-11-13 05:15:00
11:35 PM,35.2,25.0,66,30.67,10.0,North,5.8,-,N/A,,Clear,10,2013-11-13 05:35:00
11:55 PM,35.2,24.8,66,30.67,10.0,North,4.6,-,N/A,,Clear,10,2013-11-13 05:55:00